Volver al catálogo

BREEZE-M R/B

ActivoHEO
NORAD 41192·ROCKET BODY·🇷🇺 Russia

Lanzado Dec 24, 2015 desde Baikonur Cosmodrome

Loading…

Próximos Pases (próximas 24 horas)

TLE

ActualizadoSource: Space-Track

Época: Sep 14, 2026, 06:39 UTC

1 41192U 15082B   26257.27719123 -.00000097  00000-0  00000-0 0  9994
2 41192  23.0706  56.2635 6007088 203.1430 111.4189  2.16570124 84843

Sigue BREEZE-M R/B en tiempo real con AllMySat

Download on the App Store